Content
SEND FEEDBACK

Daily
Averages
Monthly
Summary
United States of America

AGAT, GUAM


Home > North America > United States > Guam
Elevation: 364 feet     Latitude: 13 33N     Longitude: 144 50E

WEATHER
 
SELECT A DAY
Number of Records: 209,044;   Date Range: 1/1/95 - 7/29/14
 
SHARE

PRINT THIS DATA

[ ← Previous Day ]
WEATHER ALMANAC - SEPTEMBER 1, 2013
[ Next Day → ]
[ °C ]   °F
Weather ElementAverageHighLow
Temperature82.1 °F88 °F (3:54 pm)78.1 °F (1:54 am)
Dewpoint76.1 °F78.8 °F (4:51 pm)75 °F (1:54 am)
Humidity82.3 %96 % (7:54 pm)65 % (3:54 pm)
Barometer29.83 in29.89 in (8:54 am)29.79 in (3:54 pm)
Wind Speed3.1 mph15 mph (2:04 pm)
Weather ElementAverage
Visibility9.2 mi
Wind DirectionSE (134.3 °)

Weather ElementTotal
Precipitation1.18 in
Cooling Degree Days18.1 (Base 65)
Growing Degree Days33.1 (Base 50)
Averaged from 35 records on September 1, 2013
WEATHER CONDITIONS BREAKOUT
WIND DIRECTION BREAKOUT
WEATHER BY HOUR - SEPTEMBER 1, 2013
[ °C ]   °F
Local TimeTemperatureDewpointHumidityBarometerVisibilityWind DirectionWind SpeedGust SpeedPrecipitationEventsConditions
1:54 AM78.1 °F75.0 °F90 %29.83 in10.0 miCalmClear
2:54 AM80.1 °F75.9 °F87 %29.82 in10.0 miCalmClear
3:54 AM80.1 °F75.9 °F87 %29.82 in10.0 miNNE (30°)3.5 mphClear
4:54 AM80.1 °F75.0 °F85 %29.82 in10.0 miNE (40°)3.5 mphClear
5:54 AM80.1 °F75.0 °F85 %29.83 in10.0 miCalmClear
6:54 AM80.1 °F75.9 °F87 %29.85 in10.0 miCalmClear
7:54 AM84.9 °F75.9 °F74 %29.88 in10.0 miCalmClear
8:54 AM86.0 °F75.9 °F72 %29.89 in10.0 miCalmPartly Cloudy
9:54 AM84.9 °F75.9 °F74 %29.88 in10.0 miCalmMostly Cloudy
10:09 AM84.2 °F75.2 °F74 %29.89 in10.0 miCalmOvercast
10:54 AM86.0 °F77.0 °F74 %29.86 in10.0 miNorth (350°)4.6 mphMostly Cloudy
11:54 AM86.0 °F77.0 °F74 %29.85 in10.0 miNNW (340°)6.9 mphMostly Cloudy
12:54 PM84.9 °F78.1 °F80 %29.83 in10.0 miNNW (340°)6.9 mph0.00 inMostly Cloudy
1:13 PM86.0 °F75.2 °F70 %29.84 in10.0 miNNW (340°)4.6 mphMostly Cloudy
1:23 PM86.0 °F77.0 °F74 %29.83 in10.0 miNNW (330°)3.5 mphThunderstormThunderstorm
1:39 PM87.8 °F75.2 °F66 %29.83 in10.0 miCalmThunderstormThunderstorm
1:54 PM86.0 °F75.9 °F72 %29.81 in10.0 miNNE (20°)10.4 mphThunderstormThunderstorm
2:04 PM80.6 °F75.2 °F84 %29.82 in10.0 miNorth (360°)15.0 mph0.00 inRainLight Rain
2:15 PM80.6 °F75.2 °F84 %29.82 in10.0 miNNW (330°)9.2 mph0.00 inRainLight Rain
2:48 PM82.4 °F75.2 °F79 %29.82 in10.0 miNW (310°)4.6 mph0.00 inMostly Cloudy
2:54 PM82.9 °F75.0 °F77 %29.80 in10.0 miNNW (340°)5.8 mph0.00 inScattered Clouds
3:54 PM88.0 °F75.0 °F65 %29.79 in10.0 miNorth (350°)4.6 mphScattered Clouds
4:17 PM86.0 °F75.2 °F70 %29.81 in10.0 miVariable3.5 mphOvercast
4:35 PM80.6 °F77.0 °F89 %29.82 in1.2 miNorth (360°)11.5 mph0.05 inRainHeavy Rain
4:43 PM78.8 °F75.2 °F89 %29.82 in0.5 miWSW (250°)3.5 mph0.35 inFog-RainHeavy Rain
4:51 PM80.6 °F78.8 °F94 %29.82 in5.0 miWest (260°)3.5 mph0.37 inRainRain
4:54 PM80.1 °F78.1 °F94 %29.80 in5.0 miCalm0.37 inRainRain
5:22 PM78.8 °F75.2 °F89 %29.81 in10.0 miNorth (350°)3.5 mph0.02 inOvercast
5:54 PM80.1 °F77.0 °F90 %29.80 in10.0 miCalm0.02 inPartly Cloudy
6:54 PM80.1 °F77.0 °F90 %29.82 in10.0 miCalmPartly Cloudy
7:54 PM78.1 °F77.0 °F96 %29.84 in10.0 miCalmPartly Cloudy
8:54 PM80.1 °F77.0 °F90 %29.85 in10.0 miCalmPartly Cloudy
9:54 PM79.0 °F77.0 °F94 %29.86 in10.0 miCalmPartly Cloudy
10:54 PM78.1 °F75.9 °F93 %29.86 in10.0 miCalmPartly Cloudy
11:54 PM79.0 °F75.9 °F90 %29.84 in10.0 miCalmPartly Cloudy
Hourly data recorded from PGUM, located miles away from Agat, Guam







STORIES FROM OUR PARTNERS